Regional Weather Roundup
Issued by NWS

Home | Current Version | Previous Version | Text Only | Print | Product List | Glossary On
Versions: 1 2 3 4 5 6 7 8 9 10 11 12 13 14 15 16 17 18 19 20 21 22 23 24 25 26 27 28 29 30 31 32 33 34 35 36 37 38 39 40 41 42 43 44 45 46 47 48 49 50
000
ASUS43 KMKX 270211
RWRWI

WISCONSIN REGIONAL WEATHER ROUNDUP
NATIONAL WEATHER SERVICE MILWAUKEE/SULLIVAN WI
800 PM CST FRI DEC 26 2014

NOTE: "FAIR" INDICATES FEW OR NO CLOUDS BELOW 12,000 FEET WITH NO
SIGNIFICANT WEATHER AND/OR OBSTRUCTIONS TO VISIBILITY.

WIZ001-002-006>008-014>016-023>028-270300-
NORTHWEST WISCONSIN

CITY           SKY/WX    TMP DP  RH WIND       PRES   REMARKS
SUPERIOR ARPT  CLOUDY    30  23  76 N6        30.12R WCI  24
ASHLAND        CLOUDY    30  27  88 NW3       30.09R
HAYWARD        CLOUDY    29  24  82 N5        30.06S WCI  24
SIREN          CLOUDY    30  25  82 CALM      30.09R
CUMBERLAND     MIX PCPN  30  27  86 N6        30.06R WCI  24
RICE LAKE      FLURRIES  31  28  88 N5        30.08R WCI  26
CHETEK         LGT SNOW  30  28  93 N3        30.07R VSB 1
LADYSMITH      LGT SNOW  31  29  91 N7        30.05S WCI  25
EAU CLAIRE     FLURRIES  32  28  85 N8        30.04S WCI  25
MENOMONIE      MIX PCPN  32  30  90 N7        30.05S WCI  26
NEW RICHMOND   LGT SNOW  29  29  99 N6        30.09R WCI  23
OSCEOLA        LGT SNOW  30  29  97 CALM      30.12S
$$

WIZ003>005-009-010-017-018-270300-
NORTH CENTRAL WISCONSIN

CITY           SKY/WX    TMP DP  RH WIND       PRES   REMARKS
MANITOWISH WTR CLOUDY    29  29 100 N3        30.01F
ARBOR VITAE    CLOUDY    32  30  93 CALM      30.01F
WOODRUFF       CLOUDY    32  30  93 CALM      30.01F
RHINELANDER    CLOUDY    29  28  96 NE3       30.01S
EAGLE RIVER    CLOUDY    30  29  98 NE5       30.01S WCI  25
LAND O LAKES   CLOUDY    30  29  96 CALM      30.02S
PHILLIPS       CLOUDY    29  28  96 N9        30.02R WCI  21
TOMAHAWK       CLOUDY    30  28  93 CALM      30.02R
MEDFORD        CLOUDY    31  29  92 NE6       30.01R WCI  25
MERRILL        CLOUDY    32  32  98 NE3       30.01S FOG
$$

WIZ029-030-035-036-043>047-270300-
CENTRAL WISCONSIN

CITY           SKY/WX    TMP DP  RH WIND       PRES   REMARKS
WAUSAU         CLOUDY    34  32  92 N5        29.99S FOG     WCI  30
MOSINEE        CLOUDY    34  34 100 CALM      30.01S FOG
MARSHFIELD     CLOUDY    34  31  88 NE6       30.00R FOG     WCI  29
STEVENS POINT  CLOUDY    31  31  99 E6        30.01S FOG     WCI  26
WAUPACA        CLOUDY    35  34  96 CALM      30.03R FOG
WAUTOMA        CLOUDY    33  33 100 NE5       30.02S WCI  28
WISC RAPIDS    CLOUDY    34  30  85 E6        30.02F WCI  29
CAMP DOUGLAS   CLOUDY    37  37 100 N1        30.01R
$$

WIZ011>013-019>022-031-037>040-048>050-270300-
NORTHEAST WISCONSIN

CITY           SKY/WX    TMP DP  RH WIND       PRES   REMARKS
ANTIGO         CLOUDY    31  31 100 E8        30.00F FOG     WCI  24
SHAWANO        FOG       35  34  96 CALM      30.04R VSB 1/4
OCONTO         CLOUDY    34  34 100 CALM      30.04S
STURGEON BAY   CLOUDY    36  32  87 CALM      30.05R
GREEN BAY      CLOUDY    35  33  92 MISG      30.03S FOG
MANITOWOC      PTCLDY    34  33  96 CALM      30.03S
APPLETON       CLOUDY    34  34 100 NE6       30.02S WCI  29
CLINTONVILLE   FOG       32  32 100 N3        30.03S VSB 1/2
OSHKOSH        CLOUDY    35  33  92 NE8       30.01S FOG     WCI  29
$$

WIZ032>034-041-042-053>061-270300-
SOUTHWEST WISCONSIN

CITY           SKY/WX    TMP DP  RH WIND       PRES   REMARKS
LA CROSSE      LGT RAIN  35  32  88 NW7       30.03R WCI  29
SPARTA         CLOUDY    36  32  85 N3        30.02S
VIROQUA        CLOUDY    35  35 100 N3        29.99S
BOSCOBEL       PTCLDY    31  30  96 CALM      30.00R
PRAIRIE DU CHI PTCLDY    33  31  93 CALM      29.99F
PLATTEVILLE    CLEAR     38  34  86 CALM      30.00S
$$

WIZ056-057-062-063-064-067-068-270300-
SOUTH CENTRAL WISCONSIN

CITY           SKY/WX    TMP DP  RH WIND       PRES   REMARKS
REEDSBURG      CLOUDY    33  32  96 CALM      29.99R
BARABOO/DELLS  PTCLDY    33  31  92 S3        29.99S
LONE ROCK      PTCLDY    35  30  82 CALM      30.00R
MINERAL POINT  PTCLDY    39  34  81 CALM      29.98S
MADISON        PTCLDY    33  31  92 CALM      30.00R
MIDDLETON      PTCLDY    33  33  98 CALM      30.00S
WATERTOWN      MOCLDY    36  35  99 CALM      30.00R
MONROE         PTCLDY    41  36  81 SE5       29.99R
JANESVILLE     CLOUDY    43  37  81 SE3       30.00R
$$

WIZ051-052-058>065-066-070>072-270300-
SOUTHEAST WISCONSIN

CITY           SKY/WX    TMP DP  RH WIND       PRES   REMARKS
MILWAUKEE      MOCLDY    42  35  76 CALM      30.00F
WAUKESHA       CLOUDY    37  34  87 CALM      30.01F
MILWAUKEE/TIMM CLOUDY    39  34  81 CALM      30.01F
RACINE         CLOUDY    42  36  79 S3        30.02F
BURLINGTON     MOCLDY    37  34  89 CALM      30.00F
KENOSHA        CLOUDY    43  37  79 S5        30.01F
FOND DU LAC    MOCLDY    35  32  88 NW5       30.01S WCI  31
SHEBOYGAN      MOCLDY    34  32  92 CALM      30.02S
WEST BEND      PTCLDY    32  30  93 CALM      30.01R
JUNEAU         MOCLDY    35  33  92 NE5       30.01S WCI  31
$$

LSZ147-162-270300-
LAKE SUPERIOR

STATION/POSITION TIME  TEMP    WIND        PRES    WAVE
                       AIR SEA DIR/SP/G            HT/PER
                 (UTC) (F)     (DEG/KT/KT) (MB)    (FT/S)
DEVILS ISLAND    0200   32     350/ 14/ 15 1019.8F
PORT WING        0140   32     350/ 11/ 13 1019.3R
SAXON HARBOR     0100   33     360/  3/  4 1018.6S
$$

LMZ867-665-643>646-270300-
LAKE MICHIGAN

STATION/POSITION TIME  TEMP    WIND        PRES    WAVE
                       AIR SEA DIR/SP/G            HT/PER
                 (UTC) (F)     (DEG/KT/KT) (MB)    (FT/S)
CHAMBERS ISLAND  0100   35     360/  9/ 10 1017.6R
NORTHPORT PIER   0100   35     330/  4/  5 1017.3S
SISTER BAY       0113             CALM       N/A
ALGOMA LAKESHORE 0115           60/  5/  7   N/A
KEWAUNEE LAKESHO 0100   37     360/  1/  4 1016.0R
SHEBOYGAN LAKESH 0200   41 39  280/  2/  2 1017.3S
PORT WASHINGTON  0100   38     230/  2/  3 1017.3
MILWAUKEE LAKESH 0100   39     130/  1/  1   N/A
KENOSHA   LAKESH 0200   45     180/  4/  5 1016.3F
$$

TC  - TEMPERATURE IN CELSIUS
VSB - VISIBILITY IN STATUTE MILES
WCI - WIND CHILL INDEX
HX  - HEAT INDEX



USA.gov is the U.S. government's official web portal to all federal, state and local government web resources and services.